{"data":{"norad_id":36110,"epoch":"2026-09-20T00:01:39.373824Z","epoch_age_seconds":57444,"freshness":"FRESH","line1":"1 36110U 09069A   26263.00115016  .00000242  00000+0  40639-4 0  9991","line2":"2 36110  97.9909 148.2105 0025949  93.1010 267.3171 14.78081374903631","mean_motion":14.78081374,"eccentricity":0.0025949,"inclination_deg":97.9909,"raan_deg":148.2105,"arg_perigee_deg":93.101,"mean_anomaly_deg":267.3171,"bstar":4.0639e-5,"rev_number":90363,"period_min":97.423594216809,"perigee_km":617.18746165659,"apogee_km":653.58624775775,"semimajor_km":7013.5238547072,"source":"CELESTRAK","updated_at":"2026-09-20T09:00:33.890758Z"}}